1520157600.82,36695,10.5,71948.5,10.91,-32.75,-33.43,0,*4F
1520157602.1,36696,10.5,71948.5,10.91,-32.85,-33.27,0,*41
1520157603.36,36697,10.5,71950.5,10.93,-32.07,-32.75,0,*4E
1520157604.57,36698,10.5,71948.8,10.93,-34.59,-35.29,0,*42
1520157605.84,36699,10.5,71950.3,10.91,-35.83,-36.79,0,*41
1520157607.07,36700,10.5,71948.5,10.91,-34.71,-35.59,0,*4D
1520157608.27,36701,10.5,71948.5,10.89,-33.37,-34.07,0,*4A
1520157609.47,36702,10.5,71948.5,10.89,-34.41,-35.13,0,*4B
1520157610.68,36703,10.5,71950.3,10.85,-35.01,-36.01,0,*43
1520157611.9,36704,10.5,71948.3,10.85,-35.41,-36.19,0,*49
1520157613.1,36705,10.5,71948.0,10.85,-34.07,-34.89,0,*40
1520157614.3,36706,10.5,71950.0,10.81,-33.95,-34.59,0,*46
1520157615.55,36707,10.5,71948.0,10.83,-34.71,-35.35,0,*43
1520157616.8,36708,10.5,71950.3,10.83,-33.73,-34.41,0,*4B
1520157618.07,36709,10.5,71948.0,10.83,-32.85,-33.43,0,*47
1520157619.3,36710,10.5,71950.8,10.83,-32.51,-33.15,0,*45
1520157620.56,36711,10.5,71948.5,10.85,-33.73,-34.65,0,*43
1520157621.76,36712,10.5,71948.0,10.85,-33.37,-34.07,0,*44
1520157622.98,36713,10.5,71946.5,10.85,-33.03,-33.73,0,*46
1520157624.18,36714,10.5,71948.5,10.85,-32.51,-33.15,0,*47
1520157625.43,36715,10.5,71948.3,10.89,-31.85,-32.45,0,*44
1520157626.68,36716,10.5,71948.5,10.89,-31.85,-32.45,0,*47
1520157627.92,36717,10.5,71952.8,10.89,-31.51,-32.29,0,*45
1520157629.18,36718,10.5,71948.5,10.93,-32.19,-32.85,0,*48
1520157630.41,36719,10.5,71946.3,10.93,-31.85,-32.39,0,*48
1520157631.66,36720,10.5,71946.0,10.95,-31.73,-32.35,0,*41
1520157632.91,36721,10.5,71948.8,10.97,-31.85,-32.45,0,*4C
1520157634.14,36722,10.5,71946.8,10.97,-32.13,-32.79,0,*4C
1520157635.39,36723,10.5,71950.3,10.97,-33.09,-33.73,0,*4C
1520157636.61,36724,10.5,71948.3,10.97,-33.67,-34.31,0,*42
1520157637.81,36725,10.5,71950.8,10.97,-32.57,-33.21,0,*47
1520157639.06,36726,10.5,71948.8,10.99,-33.09,-33.67,0,*42
1520157640.28,36727,10.5,71948.5,10.97,-32.45,-33.15,0,*41
1520157641.5,36728,10.5,71948.8,10.97,-32.63,-33.37,0,*4A
1520157642.78,36729,10.44,71944.8,10.99,-32.75,-33.43,0,*41
1520157644.0,36730,10.5,71946.3,10.99,-36.19,-37.03,0,*47
1520157645.2,36731,10.5,71948.8,10.97,-36.73,-37.57,0,*45
1520157646.43,36732,10.5,71948.0,10.95,-34.25,-34.71,0,*42
1520157647.68,36733,10.44,71944.0,10.95,-33.03,-33.77,0,*41
1520157648.91,36734,10.5,71950.0,10.95,-33.37,-34.25,0,*41
1520157650.17,36735,10.44,71946.0,10.95,-32.69,-33.43,0,*4D
1520157651.42,36736,10.44,71946.3,10.95,-33.15,-33.89,0,*42
1520157652.64,36737,10.44,71944.5,10.95,-32.51,-33.03,0,*40
1520157653.89,36738,10.44,71946.5,10.97,-31.91,-32.63,0,*45
1520157655.11,36739,10.44,71944.8,10.97,-33.73,-34.41,0,*4C
1520157656.33,36740,10.5,71950.8,10.97,-33.15,-33.89,0,*41
1520157657.6,36741,10.44,71946.3,10.99,-33.49,-34.19,0,*49
1520157658.88,36742,10.44,71946.0,10.99,-32.75,-33.43,0,*4C
1520157660.07,36743,10.44,71946.0,10.97,-33.37,-34.25,0,*43
1520157661.3,36744,10.44,71944.8,10.97,-33.37,-34.01,0,*42
1520157662.5,36745,10.5,71948.8,10.97,-34.25,-35.01,0,*46
1520157663.7,36746,10.44,71948.8,10.97,-33.83,-34.47,0,*4D
1520157664.96,36747,10.44,71946.8,10.97,-33.31,-34.01,0,*47
1520157666.18,36748,10.44,71944.8,10.99,-32.23,-32.69,0,*4C
1520157667.39,36749,10.44,71944.8,10.99,-33.15,-33.83,0,*4C
1520157668.64,36750,10.44,71948.0,10.99,-34.25,-35.07,0,*4A
1520157669.89,36751,10.44,71946.3,10.99,-34.71,-35.65,0,*4E
1520157671.17,36752,10.44,71946.5,10.95,-33.73,-34.35,0,*40
1520157672.39,36753,10.44,71944.3,10.97,-33.15,-33.89,0,*43
1520157673.61,36754,10.44,71944.8,10.97,-34.25,-34.83,0,*4D
1520157674.86,36755,10.44,71946.5,10.97,-32.79,-33.49,0,*42
1520157676.06,36756,10.44,71950.8,10.97,-34.25,-35.29,0,*4E
1520157677.28,36757,10.44,71948.0,10.97,-33.09,-33.55,0,*4B
1520157678.53,36758,10.44,71948.3,10.97,-32.75,-33.49,0,*43
1520157679.77,36759,10.44,71946.0,10.99,-33.15,-33.77,0,*46
1520157680.97,36760,10.44,71946.3,11.01,-33.15,-33.83,0,*47
1520157682.19,36761,10.44,71946.3,10.99,-33.15,-33.83,0,*46
1520157683.44,36762,10.44,71950.0,10.99,-34.01,-34.89,0,*4A
1520157684.7,36763,10.44,71948.8,10.99,-35.53,-36.37,0,*4A
1520157685.95,36764,10.44,71946.8,10.99,-34.59,-35.23,0,*40
1520157687.2,36765,10.44,71950.8,10.97,-33.31,-34.01,0,*47
1520157688.39,36766,10.44,71948.0,10.97,-33.55,-34.07,0,*40
1520157689.62,36767,10.44,71946.8,10.97,-34.01,-34.59,0,*4C
1520157690.87,36768,10.44,71950.8,10.95,-35.35,-36.43,0,*4E
1520157692.07,36769,10.44,71946.5,10.97,-34.47,-35.17,0,*4B
1520157693.32,36770,10.44,71948.0,10.97,-32.45,-33.09,0,*4E
1520157694.54,36771,10.44,71950.0,10.97,-31.91,-32.57,0,*4F
1520157695.81,36772,10.44,71950.8,10.99,-33.49,-34.19,0,*49
1520157697.05,36773,10.44,71946.5,10.99,-33.03,-33.61,0,*4E
1520157698.33,36774,10.44,71944.8,10.99,-32.07,-32.75,0,*48
1520157699.56,36775,10.44,71944.3,10.99,-32.01,-32.69,0,*42
1520157700.8,36776,10.44,71948.3,11.01,-33.67,-34.53,0,*4F
1520157702.02,36777,10.44,71944.5,11.01,-36.19,-36.79,0,*48
1520157703.27,36778,10.44,71948.8,10.99,-33.43,-34.13,0,*43
1520157704.5,36779,10.44,71944.8,11.01,-32.57,-33.09,0,*4A
1520157705.77,36780,10.44,71944.5,11.01,-32.75,-33.43,0,*42
1520157707.04,36781,10.44,71944.5,10.99,-33.43,-34.01,0,*46
1520157708.27,36782,10.44,71944.3,11.01,-35.41,-36.85,0,*4F
1520157709.5,36783,10.44,71946.3,11.01,-35.47,-36.25,0,*42
1520157710.74,36784,10.44,71948.5,11.01,-34.25,-34.95,0,*49
1520157711.96,36785,10.44,71950.0,10.99,-34.25,-34.89,0,*45
1520157713.18,36786,10.44,71946.3,10.99,-35.13,-35.89,0,*43
1520157714.44,36787,10.44,71946.0,10.95,-34.31,-34.89,0,*4E
1520157715.69,36788,10.44,71944.8,10.95,-34.07,-34.83,0,*4E
1520157716.96,36789,10.44,71946.8,10.95,-33.77,-34.31,0,*46
1520157718.18,36790,10.44,71944.0,10.97,-33.09,-33.83,0,*4B
1520157719.41,36791,10.44,71946.5,10.97,-33.49,-34.07,0,*45
1520157720.63,36792,10.44,71948.5,10.97,-32.97,-33.67,0,*45
1520157721.85,36793,10.44,71948.8,10.97,-32.23,-32.79,0,*45
1520157723.07,36794,10.44,71946.3,10.99,-32.51,-33.15,0,*42
1520157724.35,36795,10.44,71944.5,10.99,-32.75,-33.43,0,*46
1520157725.61,36796,10.44,71944.8,11.01,-33.09,-33.77,0,*48
1520157726.82,36797,10.38,71942.8,11.01,-32.39,-32.91,0,*42
1520157728.06,36798,10.44,71946.8,11.01,-32.57,-33.27,0,*49
1520157729.3,36799,10.44,71948.8,11.01,-32.69,-33.27,0,*45
1520157730.56,36800,10.38,71946.0,11.01,-33.09,-33.77,0,*48
1520157731.83,36801,10.38,71944.8,11.03,-32.69,-33.27,0,*49
1520157733.08,36802,10.44,71948.0,11.05,-32.13,-32.85,0,*48
1520157734.33,36803,10.38,71942.8,11.05,-32.69,-33.43,0,*4F
1520157735.56,36804,10.38,71946.0,11.05,-33.03,-33.61,0,*45
1520157736.82,36805,10.38,71946.0,11.05,-35.23,-36.13,0,*40
1520157738.06,36806,10.38,71946.0,11.05,-34.35,-34.89,0,*44
1520157739.32,36807,10.38,71944.8,11.05,-33.27,-33.77,0,*47
1520157740.56,36808,10.38,71944.0,11.05,-32.97,-33.55,0,*42
1520157741.81,36809,10.38,71946.3,11.05,-32.69,-33.27,0,*47
1520157743.07,36810,10.38,71946.3,11.05,-32.63,-33.27,0,*45
1520157744.34,36811,10.38,71948.5,11.05,-32.19,-32.63,0,*48
1520157745.57,36812,10.38,71944.8,11.07,-33.03,-33.55,0,*47
1520157746.83,36813,10.38,71944.0,11.07,-32.91,-33.73,0,*48
1520157748.09,36814,10.38,71944.3,11.07,-33.15,-33.73,0,*42
1520157749.34,36815,10.38,71946.3,11.11,-32.01,-32.51,0,*41
1520157750.6,36816,10.38,71944.3,11.07,-32.07,-32.57,0,*45
1520157751.86,36817,10.38,71946.5,11.13,-32.85,-33.49,0,*45
1520157753.1,36818,10.38,71944.5,11.13,-34.41,-35.07,0,*48
1520157754.35,36819,10.38,71946.0,11.13,-33.77,-34.35,0,*4B
1520157755.58,36820,10.38,71946.3,11.11,-33.67,-34.25,0,*43
1520157756.82,36821,10.38,71946.5,11.11,-32.51,-33.15,0,*42
1520157758.08,36822,10.38,71944.5,11.13,-32.97,-33.77,0,*4D
1520157759.32,36823,10.38,71946.0,11.13,-32.69,-33.49,0,*40
1520157760.55,36824,10.38,71944.3,11.13,-33.15,-33.77,0,*40
1520157761.79,36825,10.38,71940.3,11.13,-32.57,-33.27,0,*43
1520157763.09,36826,10.38,71940.5,11.15,-32.79,-33.43,0,*48
1520157764.37,36827,10.38,71944.5,11.15,-33.43,-34.31,0,*43
1520157765.6,36828,10.38,71944.0,11.13,-32.91,-33.49,0,*4C
1520157766.81,36829,10.38,71946.3,11.13,-32.23,-32.91,0,*40
1520157768.09,36830,10.38,71944.8,11.15,-33.89,-34.53,0,*47
1520157769.32,36831,10.38,71944.8,11.17,-33.03,-33.61,0,*40
1520157770.53,36832,10.38,71944.3,11.17,-33.37,-33.95,0,*4F
1520157771.78,36833,10.38,71944.8,11.17,-32.69,-33.27,0,*4D
1520157773.02,36834,10.38,71948.3,11.17,-32.69,-33.27,0,*4A
1520157774.28,36835,10.38,71946.5,11.17,-33.09,-33.61,0,*4E
1520157775.52,36836,10.38,71946.8,11.17,-32.45,-33.03,0,*40
1520157776.76,36837,10.38,71946.3,11.19,-32.57,-33.15,0,*4B
1520157777.99,36838,10.38,71946.3,11.17,-32.45,-33.03,0,*4E
1520157779.25,36839,10.38,71944.0,11.19,-31.79,-32.29,0,*44
1520157780.55,36840,10.38,71948.0,11.23,-31.57,-32.19,0,*4C
1520157781.84,36841,10.38,71944.5,11.23,-31.61,-32.19,0,*48
1520157783.11,36842,10.38,71946.5,11.23,-31.61,-32.13,0,*41
1520157784.37,36843,10.38,71944.8,11.25,-31.23,-31.85,0,*4C
1520157785.63,36844,10.38,71948.8,11.27,-31.57,-32.23,0,*45
1520157786.89,36845,10.38,71942.0,11.27,-31.61,-32.13,0,*42
1520157788.15,36846,10.38,71942.8,11.29,-31.57,-32.29,0,*43
1520157789.42,36847,10.38,71946.5,11.31,-31.85,-32.51,0,*4B
1520157790.68,36848,10.38,71944.8,11.31,-31.85,-32.39,0,*4A
1520157791.95,36849,10.38,71946.3,11.31,-32.07,-32.57,0,*4A
1520157793.24,36850,10.38,71944.3,11.31,-31.57,-32.07,0,*41
1520157794.48,36851,10.38,71944.5,11.37,-31.45,-32.13,0,*40
1520157795.77,36852,10.38,71946.3,11.37,-31.85,-32.45,0,*4C
1520157797.01,36853,10.38,71948.0,11.39,-31.61,-32.23,0,*49
1520157798.25,36854,10.31,71940.3,11.39,-32.85,-33.37,0,*43
1520157799.51,36855,10.38,71946.0,11.41,-31.91,-32.39,0,*44
1520157800.73,36856,10.38,71942.3,11.39,-33.37,-34.13,0,*48
1520157801.95,36857,10.38,71946.8,11.41,-33.55,-34.07,0,*47
1520157803.19,36858,10.38,71944.8,11.39,-32.97,-33.55,0,*48
1520157804.4,36859,10.38,71946.5,11.39,-32.39,-33.03,0,*4E
1520157805.64,36860,10.38,71944.5,11.41,-32.13,-32.69,0,*4E
1520157806.92,36861,10.38,71944.5,11.41,-31.57,-32.07,0,*44
1520157808.21,36862,10.38,71944.3,11.41,-31.95,-32.63,0,*4B
1520157809.44,36863,10.31,71946.0,11.41,-31.79,-32.39,0,*47
1520157810.73,36864,10.38,71946.5,11.45,-31.61,-32.19,0,*4F
1520157811.97,36865,10.38,71948.8,11.43,-31.91,-32.39,0,*45
1520157813.22,36866,10.38,71944.3,11.45,-31.51,-32.13,0,*44
1520157814.49,36867,10.31,71944.3,11.45,-31.45,-31.95,0,*4D
1520157815.72,36868,10.38,71944.0,11.49,-31.45,-32.01,0,*40
1520157816.96,36869,10.31,71942.8,11.49,-31.01,-31.57,0,*41
1520157818.19,36870,10.31,71946.8,11.51,-30.83,-31.57,0,*4B
1520157819.42,36871,10.38,71944.8,11.51,-31.05,-31.73,0,*43
1520157820.67,36872,10.31,71944.0,11.53,-32.91,-33.49,0,*47
1520157821.96,36873,10.38,71948.8,11.53,-32.63,-33.27,0,*43
1520157823.19,36874,10.38,71946.8,11.51,-32.23,-32.75,0,*44
1520157824.47,36875,10.38,71948.0,11.53,-31.51,-31.91,0,*48
1520157825.73,36876,10.31,71944.8,11.57,-31.61,-32.01,0,*46
1520157826.98,36877,10.31,71946.3,11.57,-31.33,-31.95,0,*4E
1520157828.24,36878,10.31,71944.5,11.57,-31.95,-32.57,0,*40
1520157829.5,36879,10.31,71946.5,11.57,-31.85,-32.69,0,*4D
1520157830.73,36880,10.31,71946.3,11.59,-32.19,-32.69,0,*43
1520157832.01,36881,10.31,71946.0,11.57,-32.85,-33.31,0,*45
1520157833.27,36882,10.31,71944.3,11.59,-32.07,-32.63,0,*44
1520157834.51,36883,10.31,71946.8,11.59,-31.91,-32.51,0,*48
1520157835.72,36884,10.31,71946.3,11.59,-32.13,-32.51,0,*46
1520157837.0,36885,10.31,71942.5,11.61,-31.73,-32.45,0,*4C
1520157838.27,36886,10.31,71944.3,11.61,-31.95,-32.51,0,*42
1520157839.5,36887,10.31,71942.8,11.63,-31.51,-32.23,0,*4C
1520157840.76,36888,10.31,71948.0,11.61,-31.79,-32.45,0,*4B
1520157841.99,36889,10.31,71946.5,11.63,-31.33,-31.85,0,*49
1520157843.24,36890,10.31,71946.8,11.63,-32.97,-33.73,0,*47
1520157844.45,36891,10.31,71942.8,11.63,-32.57,-33.21,0,*4D
1520157845.72,36892,10.31,71944.5,11.63,-34.01,-34.95,0,*43
1520157846.96,36893,10.31,71946.3,11.63,-33.73,-34.59,0,*40
1520157848.18,36894,10.31,71944.8,11.63,-35.53,-36.43,0,*4A
1520157849.44,36895,10.31,71944.5,11.61,-33.95,-34.65,0,*43
1520157850.67,36896,10.31,71946.3,11.59,-33.37,-33.89,0,*46
1520157851.93,36897,10.31,71946.8,11.59,-33.77,-34.65,0,*46
1520157853.21,36898,10.31,71944.5,11.57,-33.27,-33.77,0,*46
1520157854.46,36899,10.31,71946.3,11.59,-32.85,-33.61,0,*47
1520157855.69,36900,10.31,71940.3,11.59,-32.85,-33.55,0,*41
1520157856.92,36901,10.31,71942.8,11.57,-34.13,-34.89,0,*41
1520157858.17,36902,10.31,71946.5,11.59,-33.89,-34.65,0,*4A
1520157859.41,36903,10.31,71942.5,11.57,-34.59,-35.47,0,*4E
1520157860.66,36904,10.31,71944.3,11.57,-33.27,-34.13,0,*47
1520157861.9,36905,10.31,71944.5,11.57,-35.29,-36.01,0,*4F
1520157863.16,36906,10.31,71944.3,11.53,-34.07,-34.83,0,*4D
1520157864.41,36907,10.31,71946.8,11.53,-32.63,-33.15,0,*40
1520157865.67,36908,10.31,71942.5,11.53,-33.49,-34.07,0,*42
1520157866.95,36909,10.31,71942.8,11.53,-32.19,-32.63,0,*43
1520157868.21,36910,10.31,71944.3,11.57,-31.85,-32.39,0,*46
1520157869.44,36911,10.31,71944.8,11.57,-31.67,-32.23,0,*40
1520157870.72,36912,10.31,71946.3,11.61,-31.61,-32.29,0,*4A
1520157871.95,36913,10.31,71946.3,11.59,-31.45,-31.95,0,*42
1520157873.21,36914,10.31,71946.8,11.61,-31.29,-31.73,0,*4C
1520157874.44,36915,10.31,71940.8,11.63,-32.07,-32.57,0,*45
1520157875.7,36916,10.31,71944.0,11.63,-31.51,-32.07,0,*43
1520157876.93,36917,10.31,71944.5,11.65,-31.91,-32.39,0,*45
1520157878.19,36918,10.31,71944.0,11.67,-31.67,-32.19,0,*43
1520157879.42,36919,10.31,71942.5,11.65,-31.51,-32.13,0,*4F
1520157880.62,36920,10.31,71946.0,11.69,-31.29,-31.79,0,*49
1520157881.87,36921,10.31,71946.3,11.69,-31.95,-32.69,0,*4D
1520157883.1,36922,10.31,71940.8,11.69,-31.57,-32.01,0,*4E
1520157884.34,36923,10.31,71942.8,11.71,-31.45,-32.13,0,*46
1520157885.6,36924,10.31,71944.0,11.71,-30.89,-31.45,0,*40
1520157886.84,36925,10.31,71946.0,11.73,-31.17,-31.85,0,*49
1520157888.07,36926,10.25,71940.8,11.73,-31.95,-32.57,0,*4C
1520157889.33,36927,10.31,71944.8,11.75,-32.23,-32.75,0,*45
1520157890.61,36928,10.25,71938.8,11.75,-31.61,-32.19,0,*45
1520157891.9,36929,10.31,71944.8,11.75,-31.51,-32.07,0,*48
1520157893.16,36930,10.31,71942.5,11.81,-31.85,-32.45,0,*44
1520157894.38,36931,10.31,71946.0,11.79,-32.35,-33.03,0,*49
1520157895.67,36932,10.25,71940.0,11.79,-31.95,-32.63,0,*44
1520157896.96,36933,10.31,71946.8,11.79,-32.45,-33.09,0,*46
1520157898.22,36934,10.31,71940.8,11.79,-32.19,-32.69,0,*4F
1520157899.45,36935,10.25,71942.0,11.81,-32.51,-33.09,0,*42
1520157900.68,36936,10.31,71944.8,11.81,-32.45,-33.03,0,*4E
1520157901.92,36937,10.31,71944.3,11.79,-32.13,-32.51,0,*4D
1520157903.14,36938,10.31,71946.3,11.85,-33.15,-33.89,0,*42
1520157904.38,36939,10.31,71946.0,11.81,-34.47,-35.07,0,*47
1520157905.65,36940,10.25,71942.0,11.79,-34.65,-35.17,0,*4F
1520157906.9,36941,10.25,71944.3,11.79,-33.27,-34.07,0,*4F
1520157908.12,36942,10.31,71944.0,11.81,-34.47,-35.29,0,*47
1520157909.38,36943,10.25,71944.3,11.75,-33.95,-34.53,0,*49
1520157910.61,36944,10.25,71938.8,11.75,-33.95,-34.71,0,*4E
1520157911.84,36945,10.25,71942.8,11.75,-35.13,-35.89,0,*41
1520157913.09,36946,10.25,71942.5,11.73,-36.73,-37.63,0,*47
1520157914.36,36947,10.25,71942.8,11.71,-34.07,-34.65,0,*40
1520157915.58,36948,10.25,71942.8,11.69,-32.35,-32.97,0,*4A
1520157916.79,36949,10.25,71940.5,11.69,-32.13,-32.69,0,*4E
1520157918.08,36950,10.25,71944.0,11.71,-32.29,-32.85,0,*44
1520157919.32,36951,10.31,71946.3,11.71,-32.69,-33.37,0,*49
1520157920.56,36952,10.25,71942.3,11.71,-32.69,-33.37,0,*4A
1520157921.81,36953,10.31,71946.3,11.71,-32.01,-32.51,0,*44
1520157923.04,36954,10.25,71944.3,11.75,-32.57,-33.15,0,*45
1520157924.3,36955,10.25,71942.5,11.75,-32.35,-32.85,0,*48
1520157925.5,36956,10.25,71942.0,11.73,-33.15,-33.67,0,*43
1520157926.71,36957,10.25,71944.5,11.73,-32.13,-32.69,0,*4A
1520157927.94,36958,10.25,71944.0,11.73,-31.67,-32.29,0,*41
1520157929.23,36959,10.25,71936.5,11.75,-33.49,-34.53,0,*43
1520157930.48,36960,10.25,71942.3,11.75,-33.27,-33.83,0,*4B
1520157931.71,36961,10.25,71942.5,11.73,-32.97,-33.55,0,*4D
1520157932.98,36962,10.25,71942.3,11.75,-32.69,-33.43,0,*4E
1520157934.23,36963,10.25,71940.8,11.75,-32.23,-32.85,0,*4A
1520157935.47,36964,10.25,71940.8,11.79,-31.79,-32.35,0,*46
1520157936.73,36965,10.25,71944.0,11.81,-31.57,-32.19,0,*42
1520157937.94,36966,10.25,71938.8,11.81,-34.07,-34.71,0,*49
1520157939.17,36967,10.25,71942.3,11.79,-34.13,-34.89,0,*4D
1520157940.46,36968,10.25,71942.8,11.79,-33.89,-34.65,0,*44
1520157941.72,36969,10.25,71940.0,11.79,-32.45,-32.91,0,*49
1520157942.96,36970,10.25,71942.5,11.79,-32.01,-32.51,0,*4D
1520157944.16,36971,10.25,71940.0,11.81,-32.35,-32.91,0,*40
1520157945.42,36972,10.25,71944.8,11.79,-33.27,-33.95,0,*43
1520157946.68,36973,10.25,71942.3,11.79,-32.63,-33.21,0,*4C
1520157947.93,36974,10.25,71942.8,11.79,-33.43,-34.07,0,*4B
1520157949.19,36975,10.25,71944.0,11.81,-32.63,-33.27,0,*4B
1520157950.42,36976,10.25,71944.3,11.81,-33.43,-34.13,0,*4B
1520157951.65,36977,10.25,71942.5,11.79,-33.55,-34.13,0,*4A
1520157952.88,36978,10.25,71942.8,11.81,-33.77,-34.47,0,*43
1520157954.17,36979,10.25,71944.0,11.79,-33.89,-34.53,0,*41
1520157955.4,36980,10.25,71940.0,11.81,-33.37,-33.89,0,*45
1520157956.68,36981,10.25,71940.8,11.79,-33.73,-34.31,0,*47
1520157957.95,36982,10.25,71944.0,11.79,-32.85,-33.37,0,*4D
1520157959.24,36983,10.25,71944.8,11.79,-32.85,-33.43,0,*4F
1520157960.52,36984,10.25,71940.3,11.79,-33.89,-34.53,0,*43
1520157961.8,36985,10.25,71940.3,11.79,-33.09,-33.61,0,*4C
1520157963.01,36986,10.25,71942.3,11.73,-35.59,-36.43,0,*43
1520157964.23,36987,10.25,71942.3,11.73,-35.29,-35.89,0,*40
1520157965.47,36988,10.25,71944.5,11.73,-34.01,-34.77,0,*44
1520157966.67,36989,10.25,71940.0,11.73,-33.55,-34.07,0,*44
1520157967.9,36990,10.25,71942.5,11.73,-33.73,-34.41,0,*4A
1520157969.14,36991,10.25,71942.8,11.73,-34.47,-35.35,0,*49
1520157970.35,36992,10.25,71946.5,11.73,-35.29,-36.07,0,*41
1520157971.6,36993,10.25,71942.8,11.69,-36.91,-37.69,0,*42
1520157972.86,36994,10.25,71944.5,11.69,-35.07,-35.65,0,*47
1520157974.12,36995,10.25,71940.8,11.65,-33.61,-34.01,0,*4F
1520157975.4,36996,10.25,71940.3,11.67,-33.27,-33.77,0,*4A
1520157976.63,36997,10.25,71942.0,11.67,-32.57,-33.03,0,*4E
1520157977.86,36998,10.25,71942.8,11.67,-32.01,-32.57,0,*42
1520157979.12,36999,10.25,71940.5,11.71,-32.45,-33.03,0,*44
1520157980.41,37000,10.25,71946.0,11.71,-32.79,-33.27,0,*45
1520157981.7,37001,10.25,71944.3,11.71,-33.27,-33.77,0,*4B
1520157982.99,37002,10.25,71940.8,11.71,-31.95,-32.45,0,*43
1520157984.27,37003,10.25,71940.0,11.71,-31.73,-32.29,0,*40
1520157985.51,37004,10.19,71940.0,11.73,-32.07,-32.39,0,*44
1520157986.74,37005,10.25,71944.0,11.75,-32.01,-32.57,0,*4D
1520157988.0,37006,10.19,71940.0,11.75,-33.09,-33.67,0,*45
1520157989.26,37007,10.25,71944.0,11.75,-32.57,-32.97,0,*40
1520157990.52,37008,10.25,71944.3,11.79,-31.79,-32.29,0,*49
1520157991.76,37009,10.25,71942.0,11.79,-32.01,-32.69,0,*40
1520157993.02,37010,10.25,71942.8,11.81,-32.19,-32.63,0,*4C
1520157994.25,37011,10.25,71944.0,11.79,-33.03,-33.55,0,*44
1520157995.5,37012,10.19,71940.8,11.81,-32.45,-33.09,0,*4A
1520157996.73,37013,10.25,71944.3,11.81,-33.95,-34.65,0,*4A
1520157998.0,37014,10.19,71942.5,11.79,-35.17,-35.83,0,*4F
1520157999.25,37015,10.25,71944.3,11.79,-33.09,-33.55,0,*4A
1520158000.54,37016,10.19,71944.5,11.79,-33.09,-33.77,0,*49
1520158001.78,37017,10.19,71946.3,11.79,-32.69,-33.21,0,*4C
1520158003.0,37018,10.19,71942.3,11.81,-33.61,-34.13,0,*4B
1520158004.29,37019,10.19,71942.0,11.79,-32.63,-33.09,0,*42
1520158005.55,37020,10.19,71942.8,11.79,-33.77,-34.47,0,*41
1520158006.83,37021,10.19,71942.3,11.79,-33.61,-34.35,0,*42
1520158008.08,37022,10.19,71942.0,11.81,-34.35,-35.07,0,*40
1520158009.34,37023,10.19,71944.5,11.79,-33.09,-33.55,0,*4F
1520158010.63,37024,10.19,71944.0,11.79,-32.85,-33.27,0,*48
1520158011.92,37025,10.19,71942.5,11.79,-32.45,-33.09,0,*49
1520158013.2,37026,10.19,71942.0,11.79,-33.77,-34.53,0,*42
1520158014.42,37027,10.19,71942.5,11.81,-32.91,-33.61,0,*4B
1520158015.69,37028,10.19,71944.3,11.79,-32.63,-33.37,0,*4D
1520158016.92,37029,10.19,71944.3,11.81,-32.85,-33.37,0,*43
1520158018.13,37030,10.19,71944.3,11.81,-32.69,-33.21,0,*4E
1520158019.39,37031,10.19,71944.0,11.81,-33.09,-33.73,0,*4F
1520158020.67,37032,10.19,71946.5,11.79,-33.09,-33.61,0,*48
1520158021.9,37033,10.19,71944.5,11.81,-32.01,-32.45,0,*40
1520158023.13,37034,10.19,71942.3,11.81,-31.57,-32.01,0,*47
1520158024.39,37035,10.19,71940.3,11.85,-32.75,-33.31,0,*43
1520158025.59,37036,10.19,71944.8,11.85,-32.13,-32.57,0,*41
1520158026.83,37037,10.19,71940.5,11.87,-32.13,-32.39,0,*4A
1520158028.09,37038,10.19,71944.8,11.87,-34.25,-34.95,0,*46
1520158029.31,37039,10.19,71944.3,11.85,-33.73,-34.41,0,*48
1520158030.51,37040,10.19,71940.0,11.85,-33.15,-33.55,0,*44
1520158031.75,37041,10.19,71942.0,11.85,-32.75,-33.21,0,*41
1520158033.0,37042,10.19,71944.0,11.87,-32.51,-32.97,0,*4A
1520158034.27,37043,10.19,71944.0,11.87,-32.69,-33.27,0,*4A
1520158035.5,37044,10.19,71942.0,11.85,-34.59,-35.23,0,*48
1520158036.73,37045,10.19,71946.5,11.85,-33.49,-34.07,0,*48
1520158037.98,37046,10.19,71944.0,11.87,-33.49,-34.41,0,*4B
1520158039.24,37047,10.19,71942.8,11.85,-32.75,-33.31,0,*46
1520158040.53,37048,10.19,71944.0,11.87,-32.75,-33.31,0,*4B
1520158041.75,37049,10.19,71944.0,11.85,-32.35,-32.97,0,*41
1520158043.0,37050,10.19,71942.5,11.87,-33.15,-33.77,0,*47
1520158044.24,37051,10.19,71944.5,11.87,-32.57,-33.15,0,*45
1520158045.48,37052,10.19,71942.8,11.87,-33.15,-33.61,0,*42
1520158046.72,37053,10.19,71946.8,11.85,-32.75,-33.21,0,*42
1520158047.98,37054,10.19,71944.3,11.87,-31.45,-31.91,0,*4E
1520158049.21,37055,10.19,71942.8,11.89,-31.85,-32.39,0,*4C
1520158050.47,37056,10.19,71942.8,11.91,-32.19,-32.69,0,*45
1520158051.69,37057,10.19,71940.5,11.89,-32.57,-33.09,0,*40
1520158052.92,37058,10.19,71940.0,11.91,-32.69,-33.21,0,*41
1520158054.15,37059,10.19,71942.3,11.89,-33.31,-33.83,0,*4D
1520158055.41,37060,10.19,71940.3,11.91,-33.61,-34.31,0,*45
1520158056.62,37061,10.19,71940.5,11.89,-34.77,-35.47,0,*4D
1520158057.84,37062,10.19,71946.0,11.89,-35.29,-35.89,0,*46
1520158059.07,37063,10.19,71942.3,11.85,-35.59,-36.25,0,*49
1520158060.33,37064,10.19,71940.3,11.87,-34.25,-34.95,0,*4F
1520158061.58,37065,10.19,71940.8,11.81,-33.43,-33.89,0,*45
1520158062.81,37066,10.19,71942.0,11.81,-32.85,-33.37,0,*48
1520158064.07,37067,10.19,71944.8,11.85,-32.85,-33.49,0,*44
1520158065.33,37068,10.19,71944.8,11.85,-34.01,-34.65,0,*48
1520158066.56,37069,10.19,71944.5,11.85,-34.95,-35.71,0,*40
1520158067.8,37070,10.19,71944.0,11.81,-34.83,-35.47,0,*4E
1520158069.03,37071,10.19,71944.0,11.81,-34.35,-35.17,0,*47
1520158070.29,37072,10.19,71940.8,11.79,-33.37,-33.77,0,*46
1520158071.55,37073,10.19,71940.5,11.81,-32.79,-33.27,0,*4E
1520158072.8,37074,10.19,71942.8,11.81,-32.69,-33.27,0,*48
1520158074.06,37075,10.19,71944.3,11.81,-32.85,-33.43,0,*49
1520158075.28,37076,10.19,71940.3,11.81,-33.95,-34.53,0,*4C
1520158076.57,37077,10.19,71942.0,11.79,-36.61,-37.09,0,*48
1520158077.85,37078,10.19,71940.3,11.79,-33.43,-33.61,0,*48
1520158079.11,37079,10.19,71946.3,11.79,-33.37,-33.77,0,*4D
1520158080.37,37080,10.19,71946.0,11.81,-32.85,-33.43,0,*43
1520158081.61,37081,10.19,71944.5,11.79,-33.95,-34.47,0,*46
1520158082.9,37082,10.19,71942.8,11.79,-34.83,-35.41,0,*42
1520158084.13,37083,10.13,71942.5,11.75,-36.01,-36.67,0,*40
1520158085.37,37084,10.19,71944.8,11.73,-33.73,-34.47,0,*41
1520158086.6,37085,10.13,71942.3,11.75,-33.83,-34.41,0,*4F
1520158087.87,37086,10.13,71940.8,11.75,-34.53,-35.29,0,*49
1520158089.08,37087,10.13,71942.8,11.73,-35.89,-36.55,0,*40
1520158090.33,37088,10.13,71942.8,11.73,-35.41,-36.13,0,*49
1520158091.63,37089,10.13,71942.3,11.71,-33.73,-33.89,0,*4B
1520158092.86,37090,10.13,71942.5,11.71,-33.55,-34.07,0,*46
1520158094.09,37091,10.13,71942.0,11.71,-34.89,-35.59,0,*4B
1520158095.36,37092,10.13,71942.8,11.71,-34.35,-35.01,0,*42
1520158096.6,37093,10.19,71946.5,11.71,-34.47,-35.17,0,*41
1520158097.83,37094,10.13,71942.5,11.69,-36.61,-36.73,0,*48
1520158099.09,37095,10.19,71944.5,11.67,-34.19,-34.77,0,*4C